Location: Thompson
(55.7500°N, 97.8670°W)
Time: 23:46:25
(UTC-05:00)

Amateur Radio Satellites - All Passes

Search period start: 31 October 2014 23:16
Search period end: 01 November 2014 23:16
Location: Thompson, 55.7500°N, 97.8670°W

Satellite Date Start Highest point End Downlink Frequencies (MHz)
Time Altitude Azimuth
Oscar 11 31 Oct 23:41:44 23:44:29 16° 273° (W) 23:47:15 145.825 FM, Beacon 2401.500 USB
FUNcube-1 31 Oct 23:58:35 00:02:10 23° 269° (W) 00:05:42 145.950 - 145.970 MHz USB
MaSat-1 01 Nov 00:00:55 00:04:32 72° 309° (NW) 00:07:45 437.345 MHz
JAS-1B 01 Nov 01:13:36 01:17:00 14° 80° (E) 01:20:38 435.800 - 435.900 CW/SSB
RS-15 01 Nov 01:16:31 01:27:19 60° 340° (NNW) 01:38:21 29.354 - 29.394 USB, Beacon 29.352 USB
Oscar 19 01 Nov 01:31:54 01:33:28 11° 81° (E) 01:35:02 437.125 CW, 437.150 USB
MaSat-1 01 Nov 01:38:16 01:40:22 15° 328° (NNW) 01:42:21 437.345 MHz
AO-27 01 Nov 02:09:58 02:11:08 11° 80° (E) 02:12:18 436.795 MHz FM
Oscar 16 01 Nov 02:17:12 02:21:26 25° 91° (E) 02:25:40 437.025 USB, Beacon 2401.1428
Sapphire 01 Nov 02:38:53 02:43:04 23° 111° (ESE) 02:47:16 437.095 MHz 1200 baud AX-25 AFSK
AO-Echo 01 Nov 02:47:26 02:51:58 27° 91° (E) 02:56:27 ?
OPAL 01 Nov 02:50:42 02:51:13 10° 34° (NE) 02:51:43 ?
Uribyol 2 01 Nov 02:51:16 02:55:24 23° 90° (E) 02:59:29 436.500 FM
ITAMSAT 1 01 Nov 02:59:17 03:03:35 25° 91° (E) 03:07:52 435.822 SSB
PCSat 01 Nov 02:59:38 03:04:26 33° 116° (ESE) 03:09:16 145.825 MHz
JAS-1B 01 Nov 03:02:20 03:09:00 55° 101° (E) 03:16:57 435.800 - 435.900 CW/SSB
Oscar 19 01 Nov 03:08:53 03:13:57 59° 102° (ESE) 03:19:01 437.125 CW, 437.150 USB
RS-15 01 Nov 03:30:55 03:41:42 57° 13° (NNE) 03:52:49 29.354 - 29.394 USB, Beacon 29.352 USB
AO-27 01 Nov 03:46:42 03:51:53 55° 101° (E) 03:56:59 436.795 MHz FM
Oscar 16 01 Nov 03:56:09 04:01:15 66° 292° (WNW) 04:06:20 437.025 USB, Beacon 2401.1428
Gurwin Techsat 1B 01 Nov 04:05:40 04:10:50 47° 99° (E) 04:15:57 435.225 FM
TMSAT-1 01 Nov 04:11:39 04:16:42 41° 97° (E) 04:21:42 436.925 FM
Sapphire 01 Nov 04:20:27 04:25:54 89° 313° (NW) 04:31:23 437.095 MHz 1200 baud AX-25 AFSK
OPAL 01 Nov 04:24:17 04:28:48 33° 56° (NE) 04:33:17 ?
AO-Echo 01 Nov 04:25:52 04:31:10 65° 291° (WNW) 04:36:24 ?
Uribyol 2 01 Nov 04:30:12 04:35:26 74° 291° (WNW) 04:40:36 436.500 FM
ITAMSAT 1 01 Nov 04:38:21 04:43:35 68° 292° (WNW) 04:48:45 435.822 SSB
Uosat F 01 Nov 04:40:33 04:43:14 14° 84° (E) 04:45:55 435.120 FM
PCSat 01 Nov 04:42:11 04:47:35 67° 318° (NW) 04:53:02 145.825 MHz
JAS-2 01 Nov 04:45:03 04:47:48 12° 71° (ENE) 04:50:33 435.800 - 435.900 CW/SSB, 435.910 FM
STRAND 1 01 Nov 04:46:29 04:48:13 12° 40° (NE) 04:49:58 ?
AO-7 01 Nov 04:47:59 04:54:57 29° 90° (E) 05:01:54 29.400 - 29.500 MHz
Oscar 19 01 Nov 04:48:38 04:53:05 31° 302° (WNW) 04:57:31 437.125 CW, 437.150 USB
JAS-1B 01 Nov 04:53:23 04:59:38 46° 300° (WNW) 05:07:00 435.800 - 435.900 CW/SSB
AO-27 01 Nov 05:26:33 05:31:14 34° 302° (WNW) 05:35:52 436.795 MHz FM
Oscar 16 01 Nov 05:36:37 05:39:47 17° 313° (NW) 05:42:57 437.025 USB, Beacon 2401.1428
RS-15 01 Nov 05:44:07 05:55:13 90° 223° (SW) 06:06:46 29.354 - 29.394 USB, Beacon 29.352 USB
Gurwin Techsat 1B 01 Nov 05:45:51 05:50:46 39° 299° (WNW) 05:55:39 435.225 FM
TMSAT-1 01 Nov 05:51:41 05:56:42 43° 298° (WNW) 06:01:41 436.925 FM
Saudisat 1A 01 Nov 06:00:22 06:03:04 16° 115° (ESE) 06:05:46 436.775 MHz
OPAL 01 Nov 06:02:34 06:07:33 54° 256° (WSW) 06:12:30 ?
Sapphire 01 Nov 06:05:01 06:09:58 34° 336° (NNW) 06:14:56 437.095 MHz 1200 baud AX-25 AFSK
AO-Echo 01 Nov 06:05:40 06:09:03 17° 313° (NW) 06:12:26 ?
Uribyol 2 01 Nov 06:10:37 06:14:09 19° 312° (NW) 06:17:41 436.500 FM
Uosat F 01 Nov 06:17:52 06:22:57 73° 105° (ESE) 06:28:00 435.120 FM
ITAMSAT 1 01 Nov 06:18:52 06:22:15 18° 313° (NW) 06:25:38 435.822 SSB
STRAND 1 01 Nov 06:21:24 06:26:12 41° 62° (ENE) 06:31:03 ?
PCSat 01 Nov 06:27:10 06:31:55 30° 342° (NNW) 06:36:41 145.825 MHz
JAS-2 01 Nov 06:27:29 06:34:57 45° 94° (E) 06:42:19 435.800 - 435.900 CW/SSB, 435.910 FM
MaSat-1 01 Nov 06:27:57 06:30:17 25° 40° (NE) 06:32:27 437.345 MHz
AO-7 01 Nov 06:40:28 06:48:51 90° 113° (ESE) 06:57:14 29.400 - 29.500 MHz
JAS-1B 01 Nov 06:45:20 06:48:57 16° 323° (NW) 06:52:51 435.800 - 435.900 CW/SSB
Hamsat 01 Nov 06:59:15 07:03:11 37° 96° (E) 07:07:08 145.90 MHz
Gurwin Techsat 1B 01 Nov 07:27:52 07:29:26 11° 321° (NW) 07:31:00 435.225 FM
TMSAT-1 01 Nov 07:33:19 07:35:25 12° 320° (NW) 07:37:30 436.925 FM
Saudisat 1A 01 Nov 07:37:34 07:41:57 75° 135° (SE) 07:46:23 436.775 MHz
OPAL 01 Nov 07:47:03 07:47:35 10° 276° (W) 07:48:06 ?
Sapphire 01 Nov 07:50:23 07:54:52 25° 1° (N) 07:59:21 437.095 MHz 1200 baud AX-25 AFSK
RS-15 01 Nov 07:56:47 08:06:31 38° 250° (WSW) 08:16:37 29.354 - 29.394 USB, Beacon 29.352 USB
Uosat F 01 Nov 07:57:14 08:01:21 26° 306° (NW) 08:05:27 435.120 FM
STRAND 1 01 Nov 08:00:34 08:05:26 42° 262° (W) 08:10:22 ?
MaSat-1 01 Nov 08:03:22 08:05:38 26° 243° (WSW) 08:07:44 437.345 MHz
PCSat 01 Nov 08:12:21 08:16:53 26° 8° (N) 08:21:25 145.825 MHz
JAS-2 01 Nov 08:12:34 08:20:14 62° 296° (WNW) 08:27:52 435.800 - 435.900 CW/SSB, 435.910 FM
AO-7 01 Nov 08:33:41 08:40:55 35° 317° (NW) 08:48:10 29.400 - 29.500 MHz
Hamsat 01 Nov 08:35:19 08:39:08 34° 296° (WNW) 08:42:58 145.90 MHz
SO-67 01 Nov 08:49:54 08:53:23 75° 103° (ESE) 08:56:49 435.3500 MHz FM
Saudisat 1A 01 Nov 09:17:46 09:21:53 37° 337° (NNW) 09:26:01 436.775 MHz
Sapphire 01 Nov 09:34:40 09:39:43 37° 27° (NNE) 09:44:45 437.095 MHz 1200 baud AX-25 AFSK
PCSat 01 Nov 09:56:20 10:01:34 45° 33° (NNE) 10:06:46 145.825 MHz
JAS-2 01 Nov 09:58:14 10:03:58 23° 318° (NW) 10:09:44 435.800 - 435.900 CW/SSB, 435.910 FM
HO-68 01 Nov 10:03:15 10:09:59 40° 96° (E) 10:16:38 435.675 MHz FM
KITSAT 1 01 Nov 10:05:10 10:09:19 15° 98° (E) 10:13:27 435.175 FM
SO-67 01 Nov 10:23:56 10:25:54 15° 303° (WNW) 10:27:52 435.3500 MHz FM
AO-7 01 Nov 10:26:28 10:31:29 18° 343° (NNW) 10:36:30 29.400 - 29.500 MHz
UKube-1 01 Nov 10:45:36 10:49:29 30° 95° (E) 10:53:19 145.840 MHz, 145.915 MHz
ZACube-1 01 Nov 10:56:51 10:59:55 19° 89° (E) 11:02:57 437.345 MHz
Saudisat 1A 01 Nov 10:58:43 11:02:28 26° 1° (N) 11:06:14 436.775 MHz
Sapphire 01 Nov 11:18:13 11:23:41 82° 230° (SW) 11:29:08 437.095 MHz 1200 baud AX-25 AFSK
Oscar 11 01 Nov 11:19:32 11:23:50 58° 101° (ESE) 11:28:05 145.825 FM, Beacon 2401.500 USB
Oscar 19 01 Nov 11:21:01 11:21:26 10° 38° (NE) 11:21:51 437.125 CW, 437.150 USB
FUNcube-1 01 Nov 11:38:55 11:42:58 42° 98° (E) 11:46:56 145.950 - 145.970 MHz USB
PCSat 01 Nov 11:39:52 11:45:14 59° 235° (SW) 11:50:33 145.825 MHz
SO-50 01 Nov 11:41:29 11:45:11 25° 119° (ESE) 11:48:58 436.795 FM
JAS-2 01 Nov 11:44:31 11:46:26 11° 342° (NNW) 11:48:22 435.800 - 435.900 CW/SSB, 435.910 FM
HO-68 01 Nov 11:50:59 11:58:05 62° 298° (WNW) 12:05:08 435.675 MHz FM
KITSAT 1 01 Nov 11:55:10 12:02:56 54° 121° (ESE) 12:10:44 435.175 FM
AO-27 01 Nov 11:59:22 12:00:20 11° 37° (NE) 12:01:18 436.795 MHz FM
ISS 01 Nov 12:03:16 12:06:00 24° 157° (SSE) 12:08:46 145.800 FM
Oscar 16 01 Nov 12:04:30 12:07:58 19° 49° (NE) 12:11:25 437.025 USB, Beacon 2401.1428
JAS-1B 01 Nov 12:08:32 12:12:49 22° 46° (NE) 12:17:20 435.800 - 435.900 CW/SSB
AO-7 01 Nov 12:16:42 12:21:17 16° 10° (N) 12:25:52 29.400 - 29.500 MHz
UKube-1 01 Nov 12:21:39 12:25:50 45° 295° (WNW) 12:30:00 145.840 MHz, 145.915 MHz
AO-Echo 01 Nov 12:31:21 12:34:40 18° 48° (NE) 12:38:03 ?
ZACube-1 01 Nov 12:32:34 12:36:47 65° 290° (WNW) 12:40:55 437.345 MHz
Saudisat 1A 01 Nov 12:38:50 12:43:01 39° 25° (NNE) 12:47:12 436.775 MHz
Uribyol 2 01 Nov 12:39:24 12:42:51 18° 48° (NE) 12:46:17 436.500 FM
ITAMSAT 1 01 Nov 12:47:24 12:51:01 19° 49° (NE) 12:54:39 435.822 SSB
Oscar 19 01 Nov 12:54:49 12:59:28 36° 60° (ENE) 13:04:07 437.125 CW, 437.150 USB
Oscar 11 01 Nov 12:56:14 12:59:44 24° 301° (WNW) 13:03:13 145.825 FM, Beacon 2401.500 USB
Sapphire 01 Nov 13:02:31 13:06:24 20° 251° (WSW) 13:10:16 437.095 MHz 1200 baud AX-25 AFSK
FUNcube-1 01 Nov 13:15:33 13:19:16 30° 299° (WNW) 13:22:54 145.950 - 145.970 MHz USB
SO-50 01 Nov 13:20:42 13:25:18 80° 320° (NW) 13:30:04 436.795 FM
PCSat 01 Nov 13:25:03 13:27:36 14° 256° (WSW) 13:30:08 145.825 MHz
AO-27 01 Nov 13:33:46 13:38:30 36° 59° (ENE) 13:43:15 436.795 MHz FM
ISS 01 Nov 13:39:05 13:42:14 40° 177° (S) 13:45:24 145.800 FM
HO-68 01 Nov 13:39:20 13:44:36 23° 321° (NW) 13:49:52 435.675 MHz FM
Oscar 16 01 Nov 13:41:27 13:46:35 75° 70° (ENE) 13:51:44 437.025 USB, Beacon 2401.1428
KITSAT 1 01 Nov 13:50:18 13:58:21 64° 326° (NW) 14:06:25 435.175 FM
Gurwin Techsat 1B 01 Nov 13:55:32 14:00:11 32° 58° (ENE) 14:04:51 435.225 FM
JAS-1B 01 Nov 13:57:04 14:02:44 86° 71° (ENE) 14:08:46 435.800 - 435.900 CW/SSB
UOSAT-12 01 Nov 13:58:43 14:03:08 43° 126° (SE) 14:07:37 437.025 FM, 437.400 FM
UKube-1 01 Nov 14:00:13 14:01:02 11° 316° (NW) 14:01:51 145.840 MHz, 145.915 MHz
TMSAT-1 01 Nov 14:01:24 14:05:52 29° 56° (NE) 14:10:22 436.925 FM
AO-7 01 Nov 14:04:53 14:11:33 28° 37° (NE) 14:18:15 29.400 - 29.500 MHz
AO-Echo 01 Nov 14:07:32 14:12:35 68° 69° (ENE) 14:17:49 ?
ZACube-1 01 Nov 14:10:28 14:12:25 13° 310° (NW) 14:14:22 437.345 MHz
Uribyol 2 01 Nov 14:16:20 14:21:32 70° 69° (ENE) 14:26:45 436.500 FM
Saudisat 1A 01 Nov 14:18:27 14:22:52 66° 227° (SW) 14:27:15 436.775 MHz
ITAMSAT 1 01 Nov 14:24:34 14:29:47 76° 70° (ENE) 14:35:03 435.822 SSB
Uosat F 01 Nov 14:25:44 14:27:30 12° 41° (NE) 14:29:16 435.120 FM
Oscar 19 01 Nov 14:33:45 14:38:44 49° 261° (W) 14:43:43 437.125 CW, 437.150 USB
SO-50 01 Nov 15:02:13 15:06:28 33° 344° (NNW) 15:10:49 436.795 FM
JAS-2 01 Nov 15:06:07 15:10:24 17° 33° (NNE) 15:14:55 435.800 - 435.900 CW/SSB, 435.910 FM
AO-27 01 Nov 15:12:50 15:17:55 51° 260° (W) 15:23:03 436.795 MHz FM
ISS 01 Nov 15:15:33 15:18:33 30° 197° (SSW) 15:21:32 145.800 FM
Oscar 16 01 Nov 15:22:30 15:26:30 23° 270° (W) 15:30:32 437.025 USB, Beacon 2401.1428
HO-68 01 Nov 15:27:53 15:29:52 11° 347° (NNW) 15:31:52 435.675 MHz FM
Gurwin Techsat 1B 01 Nov 15:34:40 15:39:55 59° 258° (WSW) 15:45:13 435.225 FM
UOSAT-12 01 Nov 15:38:38 15:43:16 55° 328° (NNW) 15:47:57 437.025 FM, 437.400 FM
TMSAT-1 01 Nov 15:40:10 15:45:28 68° 257° (WSW) 15:50:47 436.925 FM
KITSAT 1 01 Nov 15:47:35 15:55:11 41° 353° (N) 16:02:46 435.175 FM
AO-Echo 01 Nov 15:47:42 15:51:52 25° 270° (W) 15:56:08 ?
JAS-1B 01 Nov 15:50:28 15:54:29 20° 275° (W) 15:58:39 435.800 - 435.900 CW/SSB
AO-7 01 Nov 15:54:59 16:03:12 71° 61° (ENE) 16:11:28 29.400 - 29.500 MHz
Uribyol 2 01 Nov 15:57:16 16:01:31 25° 269° (W) 16:05:47 436.500 FM
Saudisat 1A 01 Nov 15:59:23 16:01:40 14° 247° (WSW) 16:03:57 436.775 MHz
Uosat F 01 Nov 16:00:23 16:05:08 43° 62° (ENE) 16:09:54 435.120 FM
ITAMSAT 1 01 Nov 16:05:47 16:09:52 23° 270° (W) 16:13:59 435.822 SSB
Hamsat 01 Nov 16:26:31 16:28:30 13° 51° (NE) 16:30:29 145.90 MHz
SO-50 01 Nov 16:43:59 16:48:09 29° 8° (N) 16:52:24 436.795 FM
JAS-2 01 Nov 16:47:19 16:53:40 44° 57° (ENE) 17:00:41 435.800 - 435.900 CW/SSB, 435.910 FM
ISS 01 Nov 16:53:11 16:54:30 12° 216° (SW) 16:55:49 145.800 FM
HO-68 01 Nov 17:12:32 17:14:37 11° 14° (NNE) 17:16:41 435.675 MHz FM
Gurwin Techsat 1B 01 Nov 17:19:07 17:21:04 12° 279° (W) 17:23:02 435.225 FM
UOSAT-12 01 Nov 17:20:06 17:24:17 29° 352° (N) 17:28:28 437.025 FM, 437.400 FM
TMSAT-1 01 Nov 17:23:44 17:26:26 14° 278° (W) 17:29:08 436.925 FM
Uosat F 01 Nov 17:39:16 17:44:00 39° 263° (W) 17:48:45 435.120 FM
KITSAT 1 01 Nov 17:44:31 17:52:21 49° 22° (NNE) 18:00:08 435.175 FM
AO-7 01 Nov 17:49:01 17:56:37 39° 264° (W) 18:04:17 29.400 - 29.500 MHz
SO-67 01 Nov 17:59:01 18:00:18 12° 55° (NE) 18:01:36 435.3500 MHz FM
Hamsat 01 Nov 17:59:35 18:03:44 68° 71° (ENE) 18:07:54 145.90 MHz
OPAL 01 Nov 18:05:14 18:09:00 21° 92° (E) 18:12:44 ?
SO-50 01 Nov 18:24:53 18:29:35 53° 31° (NNE) 18:34:22 436.795 FM
JAS-2 01 Nov 18:32:00 18:38:33 58° 261° (W) 18:45:56 435.800 - 435.900 CW/SSB, 435.910 FM
HO-68 01 Nov 18:54:35 18:59:54 23° 39° (NE) 19:05:14 435.675 MHz FM
UOSAT-12 01 Nov 19:01:14 19:05:33 33° 16° (NNE) 19:09:51 437.025 FM, 437.400 FM
Oscar 10/S400 01 Nov 19:07:02 19:30:18 36° 181° (S) 22:29:14 145.825 - 145.975 CW/USB, Beacon 145.810 USB
SO-67 01 Nov 19:29:15 19:32:41 82° 75° (ENE) 19:36:10 435.3500 MHz FM
Hamsat 01 Nov 19:37:12 19:40:08 19° 271° (W) 19:43:06 145.90 MHz
KITSAT 1 01 Nov 19:40:22 19:48:30 85° 228° (SW) 19:56:35 435.175 FM
OPAL 01 Nov 19:43:29 19:48:28 77° 293° (WNW) 19:53:25 ?
STRAND 1 01 Nov 20:03:06 20:07:58 39° 97° (E) 20:12:46 ?
SO-50 01 Nov 20:05:35 20:10:11 46° 233° (SW) 20:14:50 436.795 FM
UKube-1 01 Nov 20:14:32 20:16:50 14° 49° (NE) 20:19:09 145.840 MHz, 145.915 MHz
RS-15 01 Nov 20:20:43 20:28:15 22° 99° (E) 20:35:46 29.354 - 29.394 USB, Beacon 29.352 USB
JAS-2 01 Nov 20:21:41 20:25:26 15° 286° (WNW) 20:29:24 435.800 - 435.900 CW/SSB, 435.910 FM
HO-68 01 Nov 20:39:24 20:46:28 64° 62° (ENE) 20:53:35 435.675 MHz FM
UOSAT-12 01 Nov 20:41:34 20:46:21 76° 39° (NE) 20:51:03 437.025 FM, 437.400 FM
Oscar 11 01 Nov 20:47:02 20:50:16 21° 56° (ENE) 20:53:30 145.825 FM, Beacon 2401.500 USB
SO-67 01 Nov 21:04:57 21:06:11 12° 274° (W) 21:07:26 435.3500 MHz FM
FUNcube-1 01 Nov 21:07:52 21:10:47 17° 54° (NE) 21:13:39 145.950 - 145.970 MHz USB
OPAL 01 Nov 21:23:15 21:26:41 19° 314° (NW) 21:30:07 ?
KITSAT 1 01 Nov 21:36:22 21:42:58 29° 251° (WSW) 21:49:33 435.175 FM
STRAND 1 01 Nov 21:42:22 21:47:15 44° 297° (WNW) 21:52:06 ?
UKube-1 01 Nov 21:47:57 21:52:17 66° 69° (ENE) 21:56:38 145.840 MHz, 145.915 MHz
ZACube-1 01 Nov 21:59:59 22:04:10 40° 65° (ENE) 22:08:17 437.345 MHz
Oscar 11 01 Nov 22:21:44 22:26:03 71° 256° (WSW) 22:30:23 145.825 FM, Beacon 2401.500 USB
UOSAT-12 01 Nov 22:22:09 22:26:08 27° 240° (WSW) 22:30:04 437.025 FM, 437.400 FM
RS-15 01 Nov 22:27:38 22:38:22 66° 125° (SE) 22:49:11 29.354 - 29.394 USB, Beacon 29.352 USB
HO-68 01 Nov 22:28:00 22:34:37 39° 265° (W) 22:41:17 435.675 MHz FM
FUNcube-1 01 Nov 22:42:07 22:46:37 87° 74° (ENE) 22:51:01 145.950 - 145.970 MHz USB
